Location: Unspecified
(43.1763°N, 79.4719°W)
Time: 02:04:33
(UTC-04:00)

Resurs 1-4 Rocket - Visible Passes

Search period start: 19 March 2019 00:00
Search period end: 29 March 2019 00:00
Orbit: 800 x 813 km, 98.6° (Epoch: 17 March)

Date Brightness Start Highest point End Pass type
(mag) Time Alt. Az. Time Alt. Az. Time Alt. Az.
19 Mar 5.0 02:28:37 10° NNE 02:28:56 12° NNE 02:28:56 12° NNE visible
19 Mar 4.2 04:08:34 10° N 04:10:01 17° NNW 04:10:01 17° NNW visible
20 Mar 4.2 03:43:39 10° N 03:45:15 20° N 03:45:15 20° N visible
21 Mar 4.3 03:18:56 10° NNE 03:20:28 20° N 03:20:28 20° N visible
21 Mar 4.4 05:01:10 10° NNW 05:01:33 11° NW 05:01:33 11° NW visible
22 Mar 4.5 02:54:23 10° NNE 02:55:42 18° NNE 02:55:42 18° NNE visible
22 Mar 4.2 04:35:18 10° NNW 04:36:47 15° NNW 04:36:47 15° NNW visible
23 Mar 4.8 02:30:05 10° NNE 02:30:55 14° NE 02:30:55 14° NE visible
23 Mar 4.0 04:10:06 10° N 04:12:00 20° NNW 04:12:00 20° NNW visible
24 Mar 5.0 02:06:05 10° NE 02:06:08 10° NE 02:06:08 10° NE visible
24 Mar 4.0 03:45:10 10° N 03:47:13 23° N 03:47:13 23° N visible
25 Mar 4.1 03:20:26 10° NNE 03:22:27 24° N 03:22:27 24° N visible
25 Mar 4.3 05:02:49 10° NW 05:03:32 11° NW 05:03:32 11° NW visible
26 Mar 4.3 02:55:53 10° NNE 02:57:40 22° NNE 02:57:40 22° NNE visible
26 Mar 4.1 04:36:51 10° NNW 04:38:45 16° NW 04:38:45 16° NW visible
27 Mar 4.6 02:31:32 10° NNE 02:32:53 17° NE 02:32:53 17° NE visible
27 Mar 3.8 04:11:37 10° N 04:13:58 22° NNW 04:13:58 22° NNW visible
28 Mar 4.8 02:07:31 10° NE 02:08:07 12° NE 02:08:07 12° NE visible
28 Mar 3.7 03:46:40 10° N 03:49:11 27° NNW 03:49:11 27° NNW visible
